{"data":{"norad_id":51461,"epoch":"2026-05-25T03:28:20.815104Z","epoch_age_seconds":58631,"freshness":"FRESH","line1":"1 51461U 22010F   26145.14468536  .00000743  00000+0  64792-4 0  9992","line2":"2 51461  53.2129 295.9003 0001286  88.9181 271.1958 15.08841289238362","mean_motion":15.08841289,"eccentricity":0.0001286,"inclination_deg":53.2129,"raan_deg":295.9003,"arg_perigee_deg":88.9181,"mean_anomaly_deg":271.1958,"bstar":6.4792e-5,"rev_number":23836,"period_min":95.43747314566,"perigee_km":538.84981009824,"apogee_km":540.62908792092,"semimajor_km":6917.8764490096,"source":"CELESTRAK","updated_at":"2026-05-25T13:38:16.917529Z"}}